[ hide orbit diagram ]
For accurate long-term ephemerides, please instead use our Horizons system.This orbit viewer was implemented using two-body methods, and hence should not be used for determining accurate long-term trajectories (over several years or decades) or planetary encounter circumstances.
[ revert to old Java-based viewer ]
Orbital Elements at Epoch 2458600.5 (2019-Apr-27.0) TDB
Reference: JPL 10 (heliocentric ecliptic J2000)
Element | Value | Uncertainty (1-sigma) | Units |
e | .2223273679466304 | 7.1323e-08 | |
a | 2.660030399825535 | 2.6728e-08 | au |
q | 2.068632842374301 | 1.9199e-07 | au |
i | 12.86461426868479 | 8.2313e-06 | deg |
node | 258.7876481152476 | 2.5228e-05 | deg |
peri | 193.4592178345941 | 2.9721e-05 | deg |
M | 104.7110361110605 | 1.3587e-05 | deg |
tp | 2458139.587715920645 (2018-Jan-21.08771592) | 5.7453e-05 | TDB |
period | 1584.631653272706 4.34 | 2.3884e-05 6.539e-08 | d yr |
n | .2271821336248709 | 3.4241e-09 | deg/d |
Q | 3.251427957276769 | 3.2671e-08 | au |
|
| | Orbit Determination Parameters
Additional Information
|
[ show covariance matrix ]
Physical Parameter Table
Parameter |
Symbol |
Value |
Units |
Sigma |
Reference |
Notes |
absolute magnitude |
H |
16.8 |
|
n/a |
MPO437769 |
|
|
469675 (2004 XB33) Discovered 2004-Dec-10 by LINEAR at Socorro |
Reference: | Last Updated: 2016-08-22 |
|
[ show close-approach data ]
|